Home > Weather > Lakewood > Past weeks

Flag for USA Past Weather in Lakewood, Colorado, USA — Yesterday and Last 2 Weeks

Now
65 °F

Thunderstorms. Broken clouds.


Feels Like: 65 °F
Forecast: 58 / 80 °F
Wind: 5 mph from South

Location: Centennial Airport

Current Time: Aug 29, 2016 at 3:55:59 PM

Latest Report: Aug 29, 2016 at 2:53 PM


Visibility: 10 mi

Pressure: 30.19 "Hg (24.78 "Hg at 1683m altitude)

Humidity: 70%

Dew Point: 55 °F

Location of LakewoodLocation

Past Weather in Lakewood — Graph

°F

Lakewood Temperature Yesterday

Maximum temperature yesterday: 83 °F (at 1:53 PM)
Minimum temperature yesterday: 60 °F (at 1:53 AM)
Average temperature yesterday: 70 °F

High & Low Weather Summary for the Past Weeks

 TemperatureHumidityPressure
High88 °F (Aug 15, 1:53 PM)90% (Aug 19, 5:53 PM)30.32 "Hg (Aug 19, 5:53 PM)
Low47 °F (Aug 25, 4:53 AM)11% (Aug 14, 4:53 PM)29.71 "Hg (Aug 22, 2:53 PM)
Average67 °F44%29.99 "Hg
* Reported Aug 14 2:53 PM — Aug 29 2:53 PM, Lakewood, Weather by CustomWeather, © 2016

Note: Actual official high and low records may vary slightly from our data, if they occured in-between our weather recording intervals... More about our weather records

Advertising

Lakewood Weather History for the Previous 24 Hours

Scroll right to see more
 ConditionsComfort  
Time TempWeatherWind HumidityBarometerVisibility
2:53 PM
Mon, Aug 29
65 °FThunderstorms. Broken clouds.5 mph70%30.19 "Hg10 mi
1:53 PM65 °FThunderstorms. Broken clouds.13 mph78%30.18 "Hg6 mi
1:02 PM75 °FThunderstorms. Partly sunny.15 mph34%30.32 "Hg7 mi
12:53 PM76 °FPartly sunny.No wind29%30.13 "Hg10 mi
11:53 AM75 °FPartly sunny.7 mph30%30.14 "Hg10 mi
10:53 AM77 °FPartly sunny.3 mph29%30.14 "Hg10 mi
9:53 AM74 °FPartly sunny.6 mph31%30.13 "Hg10 mi
8:53 AM70 °FPartly sunny.3 mph38%30.13 "Hg10 mi
7:53 AM66 °FPartly sunny.No wind45%30.12 "Hg10 mi
6:53 AM63 °FPassing clouds.8 mph47%30.11 "Hg10 mi
5:53 AM62 °FPassing clouds.15 mph50%30.09 "Hg10 mi
4:53 AM61 °FPartly cloudy.16 mph54%30.09 "Hg10 mi
3:53 AM59 °FLight rain. Partly cloudy.17 mph64%30.12 "Hg10 mi
2:53 AM61 °FPartly cloudy.15 mph56%30.12 "Hg10 mi
1:53 AM60 °FPartly cloudy.14 mph65%30.11 "Hg10 mi
12:53 AM59 °FPartly cloudy.23 mph69%30.10 "Hg10 mi
11:53 PM
Sun, Aug 28
63 °FPassing clouds.13 mph54%30.13 "Hg10 mi
10:53 PM64 °FPassing clouds.6 mph52%30.12 "Hg10 mi
9:53 PM66 °FPassing clouds.12 mph43%30.11 "Hg10 mi
8:53 PM66 °FPartly cloudy.No wind42%30.09 "Hg10 mi
7:53 PM69 °FBroken clouds.7 mph35%30.05 "Hg10 mi
6:53 PM73 °FBroken clouds.9 mph29%30.02 "Hg10 mi
5:53 PM77 °FBroken clouds.10 mph26%29.99 "Hg10 mi
4:53 PM79 °FBroken clouds.10 mph25%29.97 "Hg10 mi
3:53 PM75 °FThunderstorms. Broken clouds.17 mph27%29.98 "Hg10 mi
Weather by CustomWeather, © 2016

See weather overviewHow to use our weather pages